User: anonymous   Login
Location: Unspecified
(0.0000°N, 0.0000°E)
Time: 20:11:23
(UTC+00:00)
Language:

TBA - TO BE ASSIGNED - Orbit

View from above orbital plane
View from above orbital plane
View from above satellite
View from above satellite

Ground track
Ground track

The orbit is defined by the following mean orbital elements,

1 68886U          26145.58335647 +.00000000 +00000-0 +99618-3 0 00004
2 68886  51.8838 351.6319 0004657 192.3783 119.1634 15.34269976    01
Epoch (UTC): 25 May 2026 14:00:01
Eccentricity: 0.0004657
inclination: 51.8838°
perigee height: 460 km
apogee height: 466 km
right ascension of ascending node: 351.6319°
argument of perigee: 192.3783°
revolutions per day: 15.34269976
mean anomaly at epoch: 119.1634°

The dashed part of the orbit path shows where the satellite is in the earth's shadow,  

DLR